Anchorage Merrill, AK

5:42 PM AKDT on April 27, 2017 (GMT -0800)
Merrill

Weather History for PAMR - April, 2013

Change the Weather History Date:

Wednesday, April 24, 2013

  Actual Average Record
Temperature  
Mean Temperature 38 °F -  
Max Temperature 41 °F 48 °F 59 °F (1998)
Min Temperature 36 °F 31 °F 24 °F (2002)
Degree Days  
Heating Degree Days 28    
Moisture  
Dew Point 35 °F    
Average Humidity 91    
Maximum Humidity 100    
Minimum Humidity 70    
Precipitation  
Precipitation 0.00 in - - ()
Snow  
Snow 0.00 in - - ()
Snow Depth 6.00 in    
Sea Level Pressure  
Sea Level Pressure 30.11 in    
Wind  
Wind Speed 3 mph (WSW)    
Max Wind Speed 8 mph    
Max Gust Speed -    
Visibility 8 miles    
Events Rain    
Averages and records for this station are not official NWS values.
T = Trace of Precipitation, MM = Missing Value Source: NWS Daily Summary

Daily Weather History Graph

Daily Weather History Graph

Search for Another Location

Airport or City:

Trip Planner

Search our weather history database for the weather conditions in past years. The results will help you decide how hot, cold, wet, or windy it might be!

Date:

Astronomy

Apr. 24, 2013 Rise Set
Actual Time 6:09 AM AKDT 9:46 PM AKDT
Civil Twilight 5:17 AM AKDT 10:40 PM AKDT
Nautical Twilight 3:58 AM AKDT 12:00 AM AKDT
Astronomical Twilight 2:29 AM AKDT 1:24 AM AKDT
Moon 8:55 PM AKDT (4/24) 5:38 AM AKDT (4/24)
Length of Visible Light 17h 22m
Length of Day
15h 36m
Waxing Gibbous, 99% of the Moon is Illuminated
Apr 24
Waxing Gibbous
Apr 25
Full
May 2
Last Quarter
May 9
New
May 17
First Quarter

Hourly Weather History & Observations

Time (AKDT) Temp. Windchill Dew Point Humidity Pressure Visibility Wind Dir Wind Speed Gust Speed Precip Events Conditions
12:53 AM 37.0 °F - 36.0 °F 96% 30.33 in 5.0 mi Calm Calm - 0.00 in   Overcast
1:53 AM 37.0 °F - 36.0 °F 96% 30.32 in 4.0 mi Calm Calm - N/A   Overcast
2:53 AM 36.0 °F - 36.0 °F 100% 30.30 in 5.0 mi Calm Calm - N/A   Overcast
3:53 AM 37.0 °F - 36.0 °F 96% 30.29 in 10.0 mi Calm Calm - N/A   Overcast
4:53 AM 37.0 °F 34.5 °F 36.0 °F 96% 30.28 in 10.0 mi SSW 3.5 mph - N/A   Overcast
5:53 AM 37.0 °F 33.3 °F 36.0 °F 96% 30.26 in 10.0 mi SSW 4.6 mph - N/A   Overcast
6:53 AM 37.0 °F 33.3 °F 36.0 °F 96% 30.24 in 10.0 mi South 4.6 mph - N/A   Overcast
7:53 AM 37.0 °F 34.5 °F 36.0 °F 96% 30.22 in 10.0 mi South 3.5 mph - N/A   Overcast
8:18 AM 37.4 °F 32.8 °F 35.6 °F 93% 30.20 in 10.0 mi South 5.8 mph - N/A   Overcast
8:53 AM 37.0 °F 33.3 °F 36.0 °F 96% 30.20 in 10.0 mi South 4.6 mph - N/A   Overcast
9:53 AM 37.9 °F 33.5 °F 36.0 °F 93% 30.19 in 10.0 mi South 5.8 mph - N/A   Overcast
10:00 AM 37.4 °F 33.8 °F 35.6 °F 93% 30.18 in 10.0 mi South 4.6 mph - N/A   Overcast
10:53 AM 39.0 °F 35.7 °F 36.0 °F 89% 30.17 in 10.0 mi WSW 4.6 mph - N/A   Overcast
11:53 AM 39.9 °F 36.7 °F 35.1 °F 83% 30.14 in 10.0 mi Variable 4.6 mph - N/A   Overcast
12:53 PM 39.9 °F 35.8 °F 35.1 °F 83% 30.12 in 10.0 mi NW 5.8 mph - N/A   Overcast
1:53 PM 39.9 °F 36.7 °F 36.0 °F 86% 30.09 in 10.0 mi NW 4.6 mph - N/A   Overcast
1:56 PM 39.2 °F 35.9 °F 35.6 °F 87% 30.08 in 10.0 mi NW 4.6 mph - N/A   Overcast
2:53 PM 39.0 °F 34.0 °F 37.0 °F 93% 30.06 in 10.0 mi West 6.9 mph - N/A   Overcast
3:42 PM 37.4 °F 32.8 °F 35.6 °F 93% 30.03 in 4.0 mi West 5.8 mph - N/A   Overcast
3:53 PM 37.9 °F 32.7 °F 36.0 °F 93% 30.03 in 3.0 mi West 6.9 mph - N/A   Overcast
4:53 PM 37.9 °F 32.7 °F 34.0 °F 86% 30.00 in 6.0 mi West 6.9 mph - N/A   Overcast
5:53 PM 36.0 °F 32.1 °F 35.1 °F 97% 29.97 in 6.0 mi NW 4.6 mph - N/A   Overcast
6:53 PM 36.0 °F 32.1 °F 35.1 °F 97% 29.94 in 6.0 mi NW 4.6 mph - N/A   Overcast
7:53 PM 36.0 °F - 35.1 °F 97% 29.91 in 10.0 mi Calm Calm - N/A   Overcast
8:53 PM 37.0 °F - 34.0 °F 89% 29.89 in 10.0 mi Calm Calm - N/A   Scattered Clouds
9:53 PM 37.0 °F - 34.0 °F 89% 29.88 in 10.0 mi Calm Calm - N/A   Mostly Cloudy
10:53 PM 37.9 °F 35.5 °F 28.9 °F 70% 29.85 in 10.0 mi WSW 3.5 mph - N/A   Mostly Cloudy
11:53 PM 37.0 °F 31.0 °F 28.9 °F 73% 29.83 in 10.0 mi NNW 8.1 mph - 0.00 in Rain Light Rain